Location: Caltech
(34.1382°N, 118.1253°W)
Time: 13:43:11
(UTC-07:00)

PANSAT - Visible Passes

Search period start: 27 April 2015 00:00
Search period end: 07 May 2015 00:00
Orbit: 485 x 491 km, 28.5° (Epoch: 25 April)

Date Brightness Start Highest point End Pass type
(mag) Time Alt. Az. Time Alt. Az. Time Alt. Az.
03 May 9.0 05:13:03 12° SW 05:15:47 26° SSE 05:19:01 10° ESE visible
04 May 8.9 04:47:12 21° SSW 04:48:32 26° S 04:51:47 10° ESE visible
05 May 8.8 04:21:20 27° SSE 04:21:20 27° SSE 04:24:32 10° ESE visible
06 May 9.4 03:55:28 21° SE 03:55:28 21° SE 03:57:17 10° ESE visible
06 May 8.5 05:30:12 10° WSW 05:33:41 34° S 05:37:10 10° ESE visible
